User: anonymous   Login
Location: *
(32.8667°N, 13.1833°E)
Time: 23:49:32
(UTC+00:00)
Language:

Cosmos 1140 Rocket - Orbit

View from above orbital plane
View from above orbital plane
View from above satellite
View from above satellite

Ground track
Ground track

The orbit data is extracted from the following two-line orbital elements,

1 11574U 79089B   19261.82603816  .00000025  00000-0  16065-4 0  9993
2 11574  74.0698 138.6460 0016243 197.2839 162.7766 14.40723812 95750
Epoch (UTC): 18 September 2019 19:49:29
Eccentricity: 0.0016243
inclination: 74.0698°
perigee height: 744 km
apogee height: 768 km
right ascension of ascending node: 138.6460°
argument of perigee: 197.2839°
revolutions per day: 14.40723812
mean anomaly at epoch: 162.7766°
orbit number at epoch: 9575

The dashed part of the orbit path shows where the satellite is in the earth's shadow,  

DLR